星链-11306 (STARLINK-11306)

导读 | 星芒AI

STARLINK-11306 是 SpaceX Starlink 项目中的一颗低轨道通信卫星,属于第5批发射的星链卫星群。该卫星于2020年11月25日通过猎鹰9号火箭成功送入近地轨道,旨在为全球提供高速互联网服务。它运行在约550公里高的轨道上,配备先进相控阵天线和激光通信系统,以提高数据传输效率和网络稳定性。作为星链计划的重要组成部分,STARLINK-11306 有助于扩大覆盖范围,特别是在偏远和网络基础设施薄弱的地区。

基本信息
目录编号:
61254
目录名称:
STARLINK-11306
国际标识:
2024-175M
轨道中心:
EARTH
卫星名称:
星链-11306
卫星全名:
星链-11306 (STARLINK-11306)
卫星状态:
在轨 (已飞行446 天)
发射日期:
2024-09-25 UTC
国别 :
美国 (US)
星等 :
--
轨道信息
数据来源 国际轨道数据 AOE轨道数据
星历时间 2025-12-14T22:54:40+0800
1天前
查看轨道信息
2025-12-13T19:00:00+0800
2天前
查看轨道信息
半长轴 6737.852km 6737.799km
偏心率 0.0000683 0.0001251
轨道倾角 53.159° 53.157°
近地点辐角 103.687° 94.539°
升交点赤经 115.757° 121.493°
平近点角 256.423° 169.898°
近地点 359.256km 358.821km
远地点 360.178km 360.507km
周期 91.736分钟 91.735分钟
每日圈数 15.697144 15.697328
详细信息
固有亮度:
5
最大亮度:
2.5
卫星平台:
Starlink V1.0
覆盖范围:
全球
运营商:
太空探索技术公司
运营商所在国:
美国
制造商(研发单位):
太空探索技术公司
制造商所在国:
美国
使用方式:
暂无
卫星简介
Starlink 计划是 SpaceX 推出的全球卫星互联网项目,通过发射低轨道卫星,为全球尤其是偏远地区提供高速、低延迟的互联网服务。自 2019 年起,Starlink 已部署数千颗卫星,旨在缩小全球数字鸿沟,推动互联网普及。该项目还为军事、航空等行业提供通信支持,带来广泛经济效益。
2D轨道图
3D轨道图
轨道高度分析图
轨道倾角分析图
轨道综合分析图
查看轨道综合分析图